SCP
0 0 0 0 0 0 0 0 0 0 0 0 0 0 0 0 0 0 0 0 0 0 0 0 0 0 0 0 0 0 0 0 0 0 0 0 0 0 0 0 0 0 0
0 0 0 0 0 0 0 0 0 0 0 0 0 0 0 0 0 0 0 0 0 0 0 0 0 0 0 0 0 0 0 0 0 0 0 0 0 0 0 0 0 0 0
0 0 0 0 0 0 0 0 0 0 0 0 0 0 0 0 0 0 0 0 0 0 0 0 0 0 0 0 0 0 0 0 0 0 0 0 0 0 0 0 0 0 0
0 0 0 0 0 0 0 0 0 0 0 0 0 0 0 0 0 0 0 0 0 0 0 0 0 0 0 0 0 0 0 0 0 0 0 0 0 0 0 0 0 0 0
0 0 0 0 0 0 0 0 0 0 0 0 0 0 0 0 0 0 0 0 0 0 0 0 0 0 0 0 0 0 0 0 0 0 0 0 0 0 0 0 0 0 0
0 0 0 0 0 0 0 0 0 0 0 0 0 0 0 0 0 0 0 0 0 0 0 0 0 0 0 0 0 0 0 0 0 0 0 0 0 0 0 0 0 0 0
0 0 0 0 0 0 0 0 0 0 0 0 0 0 0 0 0 0 0 0 0 0 0 0 0 0 0 0 0 0 0 0 0 0 0 0 0 0 0 0 0 0 0
0 0 0 0 0 0 0 0 0 0 0 0 0 0 0 0 0 0 0 0 0 0 0 0 0 0 0 0 0 0 0 0 0 0 0 0 0 0 0 0 0 0 0
0 0 0 0 0 0 0 0 0 0 0 0 0 0 0 0 0 0 0 0 0 0 0 0 0 0 0 0 0 0 0 0 0 0 0 0 0 0 0 0 0 0 0
0 0 0 0 0 0 0 0 0 0 0 0 0 0 0 0 0 0 0 0 0 0 0 0 0 0 0 0 0 0 0 0 0 0 0 0 0 0 0 0 0 0 0
0 0 0 0 0 0 0 0 0 0 0 0 0 0 0 0 0 0 0 0 0 0 0 0 0 0 0 0 0 0 0 0 0 0 0 0 0 0 0 0 0 0 0
0 0 0 0 0 0 0 0 0 0 0 0 0 0 0 0 0 0 0 0 0 0 0 0 0 0 0 0 0 0 0 0 0 0 0 0 0 0 0 0 0 0 0
0 0 0 0 0 0 0 0 0 0 0 0 0 0 0 0 0 0 0 0 0 0 0 0 0 0 0 0 0 0 0 0 0 0 0 0 0 0 0 0 0 0 0
0 0 0 0 0 0 0 0 0 0 0 0 0 0 0 0 0 0 0 0 0 0 0 0 0 0 0 0 0 0 0 0 0 0 0 0 0 0 0 0 0 0 0
0 0 0 0 0 0 0 0 0 0 0 0 0 0 0 0 0 0 0 0 0 0 0 0 0 0 0 0 0 0 0 0 0 0 0 0 0 0 0 0 0 0 0
0 0 0 0 0 0 0 0 0 0 0 0 0 0 0 0 0 0 0 0 0 0 0 0 0 0 0 0 0 0 0 0 0 0 0 0 0 0 0 0 0 0 0
0 0 0 0 0 0 0 0 0 0 0 0 0 0 0 0 0 0 0 0 0 0 0 0 0 0 0 0 0 0 0 0 0 0 0 0 0 0 0 0 0 0 0
1 1 0 0 0 0 0 0 0 0 0 0 0 0 0 0 0 0 0 0 0 0 0 0 0 0 0 0 0 0 0 0 0 0 0 0 0 0 0 0 0 0 0
1 1 0 0 0 0 0 0 0 0 0 0 0 0 0 0 0 0 0 0 0 0 0 0 0 0 0 0 0 0 0 0 0 0 0 0 0 0 0 0 0 0 0
2 1 1 0 0 0 0 0 0 0 0 0 0 0 0 0 0 0 0 0 0 0 0 0 0 0 0 0 0 0 0 0 0 0 0 0 0 0 0 0 0 0 0
2 2 1 1 0 0 0 0 0 0 0 0 0 0 0 0 0 0 0 0 0 0 0 0 0 0 0 0 0 0 0 0 0 0 0 0 0 0 0 0 0 0 0
3 2 1 1 0 0 0 0 0 0 0 0 0 0 0 0 0 0 0 0 0 0 0 0 0 0 0 0 0 0 0 0 0 0 0 0 0 0 0 0 0 0 0
3 3 2 1 1 0 0 0 0 0 0 0 0 0 0 0 0 0 0 0 0 0 0 0 0 0 0 0 0 0 0 0 0 0 0 0 0 0 0 0 0 0 0
4 3 2 1 1 0 0 0 0 0 0 0 0 0 0 0 0 0 0 0 0 0 0 0 0 0 0 0 0 0 0 0 0 0 0 0 0 0 0 0 0 0 0
4 3 3 2 1 0 0 0 0 0 0 0 0 0 0 0 0 0 0 0 0 0 0 0 0 0 0 0 0 0 0 0 0 0 0 0 0 0 0 0 0 0 0
3 3 3 2 1 1 0 0 0 0 0 0 0 0 0 0 0 0 0 0 0 0 0 0 0 0 0 0 0 0 0 0 0 0 0 0 0 0 0 0 0 0 0
Wind_Speed
4 4 3 3 3 2 3 2 1 1 1 1 1 1 1 1 2 3 3 5 4 3 4 5 5 5 6 6 6 7 8 8 9 10 10 10 11 11 11 12 12 12 12
4 4 4 3 3 2 2 2 2 2 1 1 1 1 1 1 2 2 3 3 4 3 3 4 4 5 5 6 6 7 8 8 9 9 10 10 11 11 11 12 12 12 13
5 4 3 3 3 3 2 1 1 1 1 1 1 0 1 1 1 1 2 3 3 3 2 2 3 4 5 5 6 7 7 8 9 9 10 10 10 11 12 12 12 13 13
7 5 4 3 3 3 2 2 1 1 1 1 0 0 0 0 0 1 1 2 2 2 2 1 1 2 4 5 6 7 7 8 9 9 10 10 11 11 12 12 13 13 14
7 5 4 4 4 3 2 2 1 1 1 1 1 1 1 1 1 1 1 2 2 2 2 2 2 2 3 5 6 7 7 8 9 10 10 11 11 12 12 13 13 14 14
8 6 4 5 5 4 3 3 3 2 2 2 1 1 1 2 2 2 2 2 2 2 2 2 2 3 4 4 5 7 8 9 9 10 11 11 12 13 13 13 14 14 14
8 7 5 5 5 4 5 4 3 3 2 2 1 1 2 3 3 3 2 2 3 3 3 3 2 2 2 4 4 6 8 9 10 11 11 12 13 13 13 14 14 15 15
8 7 7 5 5 4 5 5 4 3 2 2 2 1 1 2 3 3 2 3 3 3 3 4 3 2 2 1 3 5 7 9 11 11 12 13 13 14 14 15 15 15 16
8 7 8 6 6 5 5 5 5 5 3 3 3 3 2 3 2 2 4 3 3 3 3 2 3 3 3 2 2 3 6 9 11 12 13 13 14 15 15 15 16 16 17
8 8 8 7 7 5 5 5 5 4 4 3 2 2 2 2 2 2 2 3 4 3 3 3 3 3 3 2 2 4 6 8 11 13 13 14 15 16 16 17 17 17 18
8 8 8 7 7 6 6 6 5 5 4 4 3 2 2 1 2 2 3 3 2 3 3 3 3 3 3 3 2 3 6 9 11 13 14 15 16 17 17 18 18 18 19
7 9 8 7 7 6 6 6 6 6 5 4 3 3 3 2 2 3 3 3 3 4 4 3 3 3 2 2 3 4 6 9 12 14 15 16 16 17 18 18 19 19 20
7 9 8 8 7 6 6 6 6 6 6 5 5 3 3 3 2 2 2 3 3 3 2 2 2 2 2 1 2 4 6 10 12 14 15 16 17 17 18 19 19 20 20
8 9 9 8 7 7 7 6 5 5 5 5 5 4 3 3 2 2 3 2 2 3 2 3 2 1 1 1 3 4 4 10 13 15 16 16 17 18 18 19 19 20 20
7 9 9 8 8 7 7 7 5 5 5 5 5 4 3 2 2 2 2 3 3 2 3 3 2 2 1 1 3 2 3 10 13 15 16 16 17 18 18 19 19 19 20
8 9 9 9 8 8 7 7 5 5 6 5 4 4 4 3 2 2 2 2 2 3 4 3 2 2 2 3 5 3 4 11 12 15 16 17 17 18 18 19 19 19 20
9 9 9 9 9 8 8 7 6 6 6 5 4 5 5 4 3 2 2 2 2 2 4 4 2 3 3 4 4 3 4 4 5 14 17 17 17 18 18 18 19 19 19
8 9 9 9 8 8 8 8 7 7 7 6 6 5 4 3 4 3 3 3 3 3 3 5 4 3 4 3 3 4 5 5 4 11 15 17 17 17 18 18 19 19 18
8 8 8 9 8 8 8 7 7 7 6 6 6 6 5 5 4 3 3 3 3 3 3 4 5 3 3 3 3 4 5 4 6 9 13 15 16 18 18 19 19 18 17
8 8 8 8 8 7 7 7 7 6 6 5 5 5 5 5 5 4 3 4 3 3 3 3 4 4 3 3 3 4 5 3 5 7 9 10 14 16 18 19 19 18 18
7 7 7 7 7 6 6 7 7 6 6 5 4 5 5 5 5 4 3 3 3 3 2 3 4 3 3 3 3 3 5 5 5 4 4 5 6 6 8 13 15 17 17
7 7 7 8 7 5 9 10 8 6 5 5 5 4 4 4 5 5 5 4 4 3 3 3 3 4 5 4 3 3 4 5 5 3 4 6 5 5 5 5 13 17 17
8 7 7 7 7 7 11 11 10 6 5 5 5 4 3 3 3 3 3 4 4 5 5 4 4 5 5 4 4 4 4 5 5 5 4 6 4 5 5 8 17 17 17
7 7 7 7 7 7 11 11 11 6 4 4 4 4 4 3 2 2 2 2 2 3 4 3 3 4 4 3 3 4 4 5 5 4 3 5 4 5 7 6 13 16 17
7 6 7 7 7 7 11 12 10 5 4 3 3 3 3 3 2 2 1 2 2 3 4 6 6 7 8 8 6 2 3 4 6 5 2 3 4 6 6 4 7 14 17
7 7 6 6 7 7 10 12 10 5 4 3 3 2 3 3 2 2 2 2 3 3 2 3 4 5 4 5 7 2 2 3 5 4 2 2 3 5 6 3 4 6 8
Wind_Direction
155 150 154 158 168 160 159 185 211 147 110 84 69 69 55 76 101 104 107 97 82 50 36 33 30 25 28 32 27 19 11 7 4 2 359 358 355 353 351 350 348 345 342
154 152 157 160 167 164 159 187 175 134 117 105 69 47 53 50 84 111 132 118 105 88 48 27 19 16 18 20 13 7 1 357 355 354 352 351 348 347 345 343 343 341 338
157 159 162 162 170 162 162 163 146 113 121 116 110 89 69 54 78 101 132 144 136 116 92 32 13 6 5 1 355 352 348 347 345 345 343 342 341 340 339 338 336 335 333
164 162 164 168 167 157 156 149 147 125 125 119 149 127 115 112 141 160 127 138 149 153 150 144 352 342 341 340 338 339 340 338 338 336 335 336 335 334 333 332 331 330 328
167 163 169 170 165 159 162 163 157 147 151 163 188 192 200 193 213 191 175 165 159 152 160 180 206 266 308 321 329 332 333 332 331 330 330 329 329 327 327 328 327 326 324
170 167 168 174 168 159 167 170 170 169 169 180 205 227 225 215 209 202 204 181 178 185 183 186 198 239 258 298 320 323 325 326 325 326 325 324 324 322 322 322 321 320 319
174 172 170 175 171 169 176 176 166 173 186 156 118 282 269 232 210 206 207 205 203 199 200 205 203 201 244 270 295 309 317 320 321 321 321 320 319 318 317 317 316 316 316
177 177 174 175 172 169 174 178 168 167 179 162 158 176 285 301 277 223 204 216 222 207 212 215 208 202 207 210 254 281 302 312 316 317 318 317 316 315 314 314 314 314 313
181 177 180 174 175 173 180 184 177 172 179 191 177 168 180 232 265 261 229 216 217 217 223 221 215 216 215 203 209 255 283 301 309 313 315 315 315 313 312 312 312 311 310
188 182 181 179 177 176 177 183 179 175 167 183 200 208 196 172 163 282 285 248 227 225 227 226 220 220 216 207 217 245 272 290 302 306 311 313 313 312 311 311 310 309 309
190 188 184 181 180 180 180 180 178 181 180 177 175 179 219 244 192 183 262 276 272 247 226 224 219 222 218 203 209 243 269 286 297 302 307 309 309 309 310 310 309 308 307
187 190 187 184 184 181 182 181 180 181 185 183 180 171 166 177 200 194 227 255 261 258 241 227 220 219 213 203 226 262 273 284 292 298 301 303 305 307 307 308 307 306 306
185 189 186 187 186 183 179 174 176 182 183 184 188 190 184 188 179 178 200 243 265 274 255 246 231 212 216 204 239 267 273 285 290 294 297 300 302 303 304 305 305 305 305
184 181 184 184 183 180 178 175 177 181 181 187 192 188 185 192 184 181 181 191 267 287 273 261 261 214 226 226 257 265 272 286 290 293 295 297 299 300 302 303 305 305 306
173 176 179 180 183 181 178 175 181 181 177 184 191 191 187 186 182 183 175 168 182 243 269 262 267 276 279 261 272 257 265 282 290 294 295 298 300 302 303 304 304 304 305
172 173 177 179 181 181 178 176 176 178 180 186 179 181 190 185 184 181 179 184 184 198 246 265 263 287 310 308 288 278 270 293 293 295 297 299 301 302 302 303 303 304 304
170 172 175 177 179 178 176 179 182 177 181 183 179 184 195 183 180 185 181 186 203 199 244 271 280 302 301 292 296 289 287 282 289 297 297 300 302 301 303 304 305 306 306
169 171 171 174 177 176 176 179 179 177 182 185 185 183 191 179 189 185 187 205 215 213 228 268 286 286 281 287 292 295 303 301 291 298 303 305 304 306 307 306 305 305 307
164 166 167 169 171 171 173 175 175 176 182 185 181 183 187 182 199 195 197 211 221 231 230 257 277 279 286 298 301 299 299 296 301 302 300 301 304 305 307 307 308 309 309
159 162 163 163 164 165 168 169 170 172 176 180 178 180 185 189 199 197 205 216 220 235 250 261 274 286 291 298 307 299 302 295 299 301 297 303 306 308 309 309 311 311 310
158 157 154 153 154 160 166 166 168 170 172 176 176 181 185 185 194 199 207 208 210 230 248 261 272 288 289 303 293 289 299 302 294 286 301 305 304 299 303 305 308 308 309
154 152 154 154 157 161 163 164 164 165 167 174 180 183 181 186 202 220 235 235 229 232 240 247 264 275 278 281 289 298 303 308 304 299 309 301 300 297 297 290 307 312 313
152 152 154 156 159 162 161 163 164 159 167 176 176 175 179 185 191 197 230 248 257 265 261 254 259 264 274 279 287 287 287 290 287 294 305 295 296 296 301 309 313 313 316
156 156 157 158 156 161 163 163 162 159 160 170 172 173 173 178 186 188 194 227 251 263 271 267 253 263 275 275 265 279 283 291 288 291 297 289 299 301 305 303 309 316 321
154 154 155 154 155 158 162 160 156 155 156 162 161 157 158 165 184 191 176 227 269 281 294 295 298 299 303 307 314 327 318 313 305 301 282 280 299 309 297 288 307 321 323
148 144 144 150 154 156 160 159 157 153 156 158 147 144 155 171 187 194 183 207 256 272 292 308 309 311 308 305 310 301 275 294 302 297 295 308 298 322 311 292 304 313 314